^^

..:: Storico WU ::..




Lo storico viene creato da WUnderground con i dati che la stazione Meteomincio invia al loro server. L' aggiornamento viene fatto ogni 5 minuti circa, tuttavia possono esserci intervalli pił ampi a causa di errori, interruzioni di servizio o problemi nell' invio tramite FTP.


Storico stazione MeteoMincio
Giorno Sommario per Marzo 13, 2022 Unità:  Inglese    Metrico   Entrambi
Giorno Settimana Mese Anno
  Max: Min: Media:
Temperatura: 53.6 °F 28.4 °F 42.1 °F
Dew Point: 35.6 °F 21.2 °F 29.7 °F
Umidità: 77% 49% 62%
Velocità vento: 11.8mph 0mph 4.5mph
Raffica: 17.4mph - -
Direzione- - East
Pressione: 30.4 in 30.3 in -
Precipitazioni: 0 in    
 
 
Tabulato Dati per Marzo 13, 2022
Ora Temperatura Dew Point Pressione Direzione Velocità vento Raffica Umidità Intensità pioggia (oraria) Info solare Situazione
00:04 35.6 °F 21.2 °F 30.4 in NE 3.1 mph 3.7 mph 57% 0 in 0.00 W/m2 unknown
00:09 35.6 °F 21.2 °F 30.4 in NE 3.1 mph 3.7 mph 57% 0 in 0.00 W/m2 unknown
00:14 35.6 °F 21.2 °F 30.4 in NE 3.1 mph 3.7 mph 57% 0 in 0.00 W/m2 unknown
00:19 35.6 °F 21.2 °F 30.4 in NE 2.5 mph 3.7 mph 58% 0 in 0.00 W/m2 unknown
00:24 35.6 °F 21.2 °F 30.4 in NE 1.9 mph 3.7 mph 58% 0 in 0.00 W/m2 unknown
00:29 35.6 °F 21.2 °F 30.4 in NE 1.9 mph 3.7 mph 58% 0 in 0.00 W/m2 unknown
00:34 33.8 °F 21.2 °F 30.4 in NE 2.5 mph 3.7 mph 59% 0 in 0.00 W/m2 unknown
00:39 33.8 °F 21.2 °F 30.4 in NE 2.5 mph 3.7 mph 59% 0 in 0.00 W/m2 unknown
00:44 33.8 °F 21.2 °F 30.4 in NE 2.5 mph 3.7 mph 59% 0 in 0.00 W/m2 unknown
00:49 33.8 °F 21.2 °F 30.4 in NE 2.5 mph 3.7 mph 59% 0 in 0.00 W/m2 unknown
00:54 33.8 °F 21.2 °F 30.4 in NE 1.9 mph 3.7 mph 59% 0 in 0.00 W/m2 unknown
00:59 33.8 °F 21.2 °F 30.4 in NE 2.5 mph 3.7 mph 59% 0 in 0.00 W/m2 unknown
01:04 33.8 °F 21.2 °F 30.4 in NE 2.5 mph 3.7 mph 59% 0 in 0.00 W/m2 unknown
01:09 33.8 °F 21.2 °F 30.4 in NE 2.5 mph 3.7 mph 59% 0 in 0.00 W/m2 unknown
01:14 33.8 °F 21.2 °F 30.4 in NE 3.1 mph 3.7 mph 59% 0 in 0.00 W/m2 unknown
01:19 33.8 °F 21.2 °F 30.4 in NE 2.5 mph 3.7 mph 59% 0 in 0.00 W/m2 unknown
01:24 33.8 °F 21.2 °F 30.4 in NE 2.5 mph 3.7 mph 59% 0 in 0.00 W/m2 unknown
01:29 33.8 °F 21.2 °F 30.4 in NE 3.1 mph 3.7 mph 59% 0 in 0.00 W/m2 unknown
01:34 33.8 °F 21.2 °F 30.4 in NE 3.1 mph 3.7 mph 59% 0 in 0.00 W/m2 unknown
01:39 33.8 °F 21.2 °F 30.4 in NE 3.7 mph 3.7 mph 59% 0 in 0.00 W/m2 unknown
01:44 33.8 °F 21.2 °F 30.4 in NE 3.1 mph 3.7 mph 61% 0 in 0.00 W/m2 unknown
01:49 33.8 °F 21.2 °F 30.4 in ENE 1.9 mph 3.7 mph 63% 0 in 0.00 W/m2 unknown
01:54 32 °F 21.2 °F 30.4 in ENE 1.9 mph 3.7 mph 64% 0 in 0.00 W/m2 unknown
01:59 32 °F 21.2 °F 30.4 in ENE 2.5 mph 3.7 mph 65% 0 in 0.00 W/m2 unknown
02:04 32 °F 21.2 °F 30.4 in ENE 1.9 mph 3.7 mph 65% 0 in 0.00 W/m2 unknown
02:09 32 °F 21.2 °F 30.4 in ENE 1.9 mph 3.7 mph 65% 0 in 0.00 W/m2 unknown
02:14 32 °F 21.2 °F 30.4 in ENE 2.5 mph 3.7 mph 65% 0 in 0.00 W/m2 unknown
02:19 32 °F 21.2 °F 30.4 in ENE 2.5 mph 3.7 mph 65% 0 in 0.00 W/m2 unknown
02:24 32 °F 21.2 °F 30.4 in ENE 2.5 mph 3.7 mph 65% 0 in 0.00 W/m2 unknown
02:29 32 °F 21.2 °F 30.4 in ENE 1.9 mph 3.7 mph 66% 0 in 0.00 W/m2 unknown
02:34 32 °F 21.2 °F 30.4 in ENE 1.9 mph 3.1 mph 66% 0 in 0.00 W/m2 unknown
02:39 32 °F 21.2 °F 30.4 in ENE 1.9 mph 3.7 mph 66% 0 in 0.00 W/m2 unknown
02:44 32 °F 21.2 °F 30.4 in ENE 1.9 mph 3.1 mph 66% 0 in 0.00 W/m2 unknown
02:49 32 °F 21.2 °F 30.4 in ENE 2.5 mph 3.7 mph 66% 0 in 0.00 W/m2 unknown
02:54 32 °F 21.2 °F 30.4 in ENE 2.5 mph 3.7 mph 68% 0 in 0.00 W/m2 unknown
02:59 32 °F 21.2 °F 30.3 in ENE 1.9 mph 3.7 mph 68% 0 in 0.00 W/m2 unknown
03:04 32 °F 21.2 °F 30.3 in ENE 1.2 mph 3.1 mph 68% 0 in 0.00 W/m2 unknown
03:09 32 °F 23 °F 30.3 in ENE 1.9 mph 2.5 mph 69% 0 in 0.00 W/m2 unknown
03:14 32 °F 23 °F 30.3 in ENE 1.9 mph 2.5 mph 69% 0 in 0.00 W/m2 unknown
03:19 30.2 °F 21.2 °F 30.3 in ENE 1.2 mph 2.5 mph 69% 0 in 0.00 W/m2 unknown
03:24 30.2 °F 23 °F 30.3 in ENE 1.9 mph 3.7 mph 70% 0 in 0.00 W/m2 unknown
03:29 30.2 °F 23 °F 30.3 in ENE 1.9 mph 3.7 mph 70% 0 in 0.00 W/m2 unknown
03:34 30.2 °F 23 °F 30.3 in ENE 1.9 mph 3.7 mph 71% 0 in 0.00 W/m2 unknown
03:39 30.2 °F 23 °F 30.3 in ENE 1.9 mph 3.1 mph 71% 0 in 0.00 W/m2 unknown
03:44 32 °F 23 °F 30.3 in ENE 1.9 mph 2.5 mph 71% 0 in 0.00 W/m2 unknown
03:49 30.2 °F 23 °F 30.3 in ENE 3.1 mph 3.7 mph 71% 0 in 0.00 W/m2 unknown
03:54 30.2 °F 23 °F 30.3 in ENE 2.5 mph 3.7 mph 71% 0 in 0.00 W/m2 unknown
03:59 30.2 °F 23 °F 30.3 in ENE 1.2 mph 3.1 mph 72% 0 in 0.00 W/m2 unknown
04:04 30.2 °F 23 °F 30.3 in ENE 1.9 mph 2.5 mph 72% 0 in 0.00 W/m2 unknown
04:09 30.2 °F 23 °F 30.3 in ENE 1.9 mph 3.7 mph 71% 0 in 0.00 W/m2 unknown
04:14 32 °F 23 °F 30.3 in NE 1.9 mph 3.7 mph 71% 0 in 0.00 W/m2 unknown
04:19 30.2 °F 23 °F 30.3 in NE 1.9 mph 3.7 mph 72% 0 in 0.00 W/m2 unknown
04:24 32 °F 23 °F 30.3 in NE 1.9 mph 3.1 mph 71% 0 in 0.00 W/m2 unknown
04:29 32 °F 23 °F 30.3 in NE 1.9 mph 3.7 mph 71% 0 in 0.00 W/m2 unknown
04:34 30.2 °F 23 °F 30.3 in ENE 1.9 mph 3.7 mph 74% 0 in 0.00 W/m2 unknown
04:39 30.2 °F 23 °F 30.3 in ENE 2.5 mph 3.7 mph 74% 0 in 0.00 W/m2 unknown
04:44 30.2 °F 23 °F 30.3 in ENE 2.5 mph 3.7 mph 74% 0 in 0.00 W/m2 unknown
04:49 30.2 °F 23 °F 30.3 in ENE 2.5 mph 3.7 mph 74% 0 in 0.00 W/m2 unknown
04:54 30.2 °F 23 °F 30.3 in ENE 1.9 mph 3.7 mph 75% 0 in 0.00 W/m2 unknown
04:59 30.2 °F 23 °F 30.3 in ENE 2.5 mph 3.7 mph 75% 0 in 0.00 W/m2 unknown
05:04 30.2 °F 23 °F 30.3 in ENE 1.9 mph 3.1 mph 74% 0 in 0.00 W/m2 unknown
05:09 30.2 °F 23 °F 30.3 in ENE 1.9 mph 2.5 mph 75% 0 in 0.00 W/m2 unknown
05:14 30.2 °F 23 °F 30.3 in ENE 2.5 mph 3.7 mph 75% 0 in 0.00 W/m2 unknown
05:19 30.2 °F 23 °F 30.3 in NE 1.9 mph 3.7 mph 75% 0 in 0.00 W/m2 unknown
05:24 30.2 °F 23 °F 30.3 in NE 1.2 mph 3.1 mph 76% 0 in 0.00 W/m2 unknown
05:29 30.2 °F 23 °F 30.3 in NE 1.9 mph 2.5 mph 76% 0 in 0.00 W/m2 unknown
05:34 28.4 °F 23 °F 30.3 in NE 1.2 mph 2.5 mph 77% 0 in 0.00 W/m2 unknown
05:39 28.4 °F 23 °F 30.3 in NE 1.2 mph 2.5 mph 77% 0 in 0.00 W/m2 unknown
05:44 30.2 °F 23 °F 30.3 in ENE 1.9 mph 2.5 mph 77% 0 in 0.00 W/m2 unknown
05:49 28.4 °F 23 °F 30.3 in ENE 1.2 mph 2.5 mph 77% 0 in 0.00 W/m2 unknown
05:54 28.4 °F 23 °F 30.3 in ENE 1.2 mph 1.9 mph 77% 0 in 0.00 W/m2 unknown
05:59 28.4 °F 23 °F 30.3 in ENE 0.6 mph 1.2 mph 77% 0 in 0.00 W/m2 unknown
06:04 28.4 °F 23 °F 30.3 in ENE 0.6 mph 1.2 mph 77% 0 in 0.00 W/m2 unknown
06:09 28.4 °F 23 °F 30.3 in ENE 1.2 mph 2.5 mph 77% 0 in 0.00 W/m2 unknown
06:14 28.4 °F 23 °F 30.3 in ENE 1.2 mph 2.5 mph 77% 0 in 0.00 W/m2 unknown
06:19 30.2 °F 23 °F 30.3 in ENE 1.2 mph 2.5 mph 76% 0 in 0.00 W/m2 unknown
06:24 30.2 °F 23 °F 30.3 in NE 1.9 mph 3.7 mph 75% 0 in 0.00 W/m2 unknown
06:29 30.2 °F 23 °F 30.3 in NE 1.9 mph 3.7 mph 75% 0 in 0.00 W/m2 unknown
06:34 28.4 °F 23 °F 30.3 in NE 1.9 mph 3.1 mph 76% 0 in 0.00 W/m2 unknown
06:39 28.4 °F 23 °F 30.3 in NE 1.9 mph 2.5 mph 76% 0 in 7.00 W/m2 unknown
06:44 28.4 °F 23 °F 30.3 in NNE 1.2 mph 2.5 mph 76% 0 in 9.00 W/m2 unknown
06:49 28.4 °F 23 °F 30.3 in NE 1.2 mph 2.5 mph 77% 0 in 12.00 W/m2 unknown
06:54 28.4 °F 23 °F 30.3 in NE 2.5 mph 3.7 mph 77% 0 in 14.00 W/m2 unknown
06:59 30.2 °F 23 °F 30.3 in NE 2.5 mph 3.7 mph 77% 0 in 16.00 W/m2 unknown
07:04 30.2 °F 23 °F 30.3 in NE 2.5 mph 3.7 mph 74% 0 in 21.00 W/m2 unknown
07:09 32 °F 23 °F 30.3 in NE 3.1 mph 3.7 mph 71% 0 in 32.00 W/m2 unknown
07:14 32 °F 23 °F 30.3 in NE 3.1 mph 3.7 mph 70% 0 in 40.00 W/m2 unknown
07:19 32 °F 23 °F 30.3 in NE 1.9 mph 3.7 mph 72% 0 in 51.00 W/m2 unknown
07:24 30.2 °F 23 °F 30.4 in NE 1.2 mph 3.1 mph 74% 0 in 62.00 W/m2 unknown
07:29 32 °F 23 °F 30.4 in NE 1.9 mph 2.5 mph 74% 0 in 76.00 W/m2 unknown
07:34 32 °F 24.8 °F 30.3 in ENE 0.6 mph 1.9 mph 76% 0 in 86.00 W/m2 unknown
07:39 32 °F 24.8 °F 30.4 in Calm   1.2 mph 75% 0 in 102.00 W/m2 unknown
07:44 32 °F 24.8 °F 30.4 in Calm   1.2 mph 73% 0 in 118.00 W/m2 unknown
07:49 32 °F 24.8 °F 30.4 in Calm     73% 0 in 135.00 W/m2 unknown
07:54 33.8 °F 24.8 °F 30.4 in Calm     73% 0 in 153.00 W/m2 unknown
07:59 33.8 °F 24.8 °F 30.4 in Calm     71% 0 in 169.00 W/m2 unknown
08:04 33.8 °F 24.8 °F 30.4 in Calm     68% 0 in 185.00 W/m2 unknown
08:09 35.6 °F 24.8 °F 30.4 in East 1.9 mph 3.7 mph 69% 0 in 197.00 W/m2 unknown
08:14 35.6 °F 24.8 °F 30.4 in East 1.9 mph 3.7 mph 68% 0 in 211.00 W/m2 unknown
08:19 35.6 °F 26.6 °F 30.4 in East 1.2 mph 3.1 mph 68% 0 in 223.00 W/m2 unknown
08:24 35.6 °F 26.6 °F 30.4 in East 1.2 mph 2.5 mph 67% 0 in 237.00 W/m2 unknown
08:29 37.4 °F 26.6 °F 30.4 in East 1.2 mph 2.5 mph 68% 0 in 251.00 W/m2 unknown
08:34 37.4 °F 26.6 °F 30.4 in East 1.9 mph 3.7 mph 68% 0 in 265.00 W/m2 unknown
08:39 37.4 °F 28.4 °F 30.4 in East 3.1 mph 5 mph 68% 0 in 278.00 W/m2 unknown
08:44 39.2 °F 28.4 °F 30.4 in East 4.3 mph 5 mph 67% 0 in 290.00 W/m2 unknown
08:49 39.2 °F 28.4 °F 30.4 in ENE 3.1 mph 5 mph 64% 0 in 301.00 W/m2 unknown
08:54 39.2 °F 28.4 °F 30.4 in NE 2.5 mph 5 mph 63% 0 in 316.00 W/m2 unknown
08:59 41 °F 28.4 °F 30.4 in ENE 3.7 mph 5 mph 63% 0 in 330.00 W/m2 unknown
09:04 41 °F 28.4 °F 30.4 in ENE 3.1 mph 5 mph 62% 0 in 345.00 W/m2 unknown
09:09 41 °F 28.4 °F 30.4 in East 2.5 mph 3.7 mph 63% 0 in 357.00 W/m2 unknown
09:14 41 °F 28.4 °F 30.4 in ENE 3.1 mph 3.7 mph 62% 0 in 371.00 W/m2 unknown
09:19 42.8 °F 30.2 °F 30.4 in ENE 5.6 mph 6.8 mph 62% 0 in 380.00 W/m2 unknown
09:24 42.8 °F 30.2 °F 30.4 in ENE 5 mph 6.8 mph 61% 0 in 394.00 W/m2 unknown
09:29 42.8 °F 30.2 °F 30.4 in ENE 4.3 mph 6.8 mph 62% 0 in 406.00 W/m2 unknown
09:34 44.6 °F 32 °F 30.4 in East 4.3 mph 8.1 mph 61% 0 in 420.00 W/m2 unknown
09:39 44.6 °F 32 °F 30.4 in East 6.2 mph 8.1 mph 61% 0 in 434.00 W/m2 unknown
09:44 44.6 °F 32 °F 30.4 in East 6.2 mph 8.1 mph 62% 0 in 445.00 W/m2 unknown
09:49 44.6 °F 32 °F 30.4 in East 5.6 mph 6.8 mph 62% 0 in 454.00 W/m2 unknown
09:54 44.6 °F 32 °F 30.4 in ESE 5.6 mph 8.1 mph 61% 0 in 464.00 W/m2 unknown
09:59 44.6 °F 32 °F 30.4 in East 6.2 mph 8.1 mph 62% 0 in 476.00 W/m2 unknown
10:04 46.4 °F 32 °F 30.4 in ESE 8.1 mph 9.3 mph 61% 0 in 489.00 W/m2 unknown
10:09 46.4 °F 32 °F 30.4 in ESE 8.1 mph 9.3 mph 59% 0 in 497.00 W/m2 unknown
10:14 44.6 °F 32 °F 30.4 in East 7.5 mph 10.6 mph 60% 0 in 508.00 W/m2 unknown
10:19 46.4 °F 32 °F 30.4 in East 6.8 mph 10.6 mph 59% 0 in 517.00 W/m2 unknown
10:24 46.4 °F 32 °F 30.4 in East 6.2 mph 9.9 mph 59% 0 in 524.00 W/m2 unknown
10:29 46.4 °F 33.8 °F 30.4 in ESE 6.2 mph 9.3 mph 59% 0 in 536.00 W/m2 unknown
10:34 46.4 °F 32 °F 30.4 in ESE 8.1 mph 10.6 mph 57% 0 in 541.00 W/m2 unknown
10:39 46.4 °F 32 °F 30.4 in ESE 6.2 mph 9.9 mph 57% 0 in 554.00 W/m2 unknown
10:44 48.2 °F 33.8 °F 30.4 in ESE 3.7 mph 6.8 mph 59% 0 in 564.00 W/m2 unknown
10:49 48.2 °F 33.8 °F 30.4 in ESE 6.2 mph 8.7 mph 58% 0 in 568.00 W/m2 unknown
10:54 46.4 °F 32 °F 30.4 in ESE 8.1 mph 11.8 mph 57% 0 in 575.00 W/m2 unknown
10:59 48.2 °F 33.8 °F 30.4 in East 7.5 mph 11.8 mph 57% 0 in 578.00 W/m2 unknown
11:04 48.2 °F 33.8 °F 30.4 in East 7.5 mph 10.6 mph 57% 0 in 585.00 W/m2 unknown
11:09 48.2 °F 33.8 °F 30.4 in East 6.8 mph 9.9 mph 57% 0 in 596.00 W/m2 unknown
11:14 48.2 °F 32 °F 30.4 in East 7.5 mph 10.6 mph 55% 0 in 599.00 W/m2 unknown
11:19 48.2 °F 32 °F 30.4 in ESE 5.6 mph 9.9 mph 56% 0 in 610.00 W/m2 unknown
11:24 48.2 °F 33.8 °F 30.4 in East 7.5 mph 8.7 mph 57% 0 in 621.00 W/m2 unknown
11:29 48.2 °F 32 °F 30.4 in East 8.1 mph 9.3 mph 55% 0 in 628.00 W/m2 unknown
11:34 48.2 °F 32 °F 30.4 in ESE 6.2 mph 9.3 mph 55% 0 in 628.00 W/m2 unknown
11:39 48.2 °F 32 °F 30.4 in ESE 9.9 mph 13 mph 54% 0 in 628.00 W/m2 unknown
11:44 48.2 °F 32 °F 30.3 in ESE 6.8 mph 9.3 mph 54% 0 in 633.00 W/m2 unknown
11:49 48.2 °F 32 °F 30.3 in ESE 5 mph 8.7 mph 53% 0 in 638.00 W/m2 unknown
11:54 50 °F 32 °F 30.3 in ESE 7.5 mph 9.3 mph 51% 0 in 642.00 W/m2 unknown
11:59 50 °F 32 °F 30.3 in ESE 6.8 mph 8.1 mph 53% 0 in 645.00 W/m2 unknown
12:04 50 °F 32 °F 30.3 in ESE 11.2 mph 13 mph 53% 0 in 649.00 W/m2 unknown
12:09 50 °F 32 °F 30.3 in East 7.5 mph 13 mph 52% 0 in 654.00 W/m2 unknown
12:14 50 °F 32 °F 30.3 in East 6.2 mph 11.8 mph 52% 0 in 652.00 W/m2 unknown
12:19 50 °F 33.8 °F 30.3 in NNE 5 mph 11.8 mph 53% 0 in 654.00 W/m2 unknown
12:24 50 °F 33.8 °F 30.3 in NNE 5 mph 6.8 mph 52% 0 in 656.00 W/m2 unknown
12:29 50 °F 32 °F 30.3 in ESE 4.3 mph 6.8 mph 49% 0 in 656.00 W/m2 unknown
12:34 50 °F 32 °F 30.3 in SE 8.1 mph 10.6 mph 51% 0 in 656.00 W/m2 unknown
12:39 50 °F 32 °F 30.3 in ESE 8.1 mph 11.8 mph 49% 0 in 659.00 W/m2 unknown
12:44 50 °F 32 °F 30.3 in SE 8.1 mph 11.8 mph 49% 0 in 657.00 W/m2 unknown
12:49 50 °F 32 °F 30.3 in ENE 6.2 mph 9.9 mph 50% 0 in 654.00 W/m2 unknown
12:54 50 °F 32 °F 30.3 in ESE 9.3 mph 14.3 mph 51% 0 in 647.00 W/m2 unknown
12:59 50 °F 32 °F 30.3 in East 9.3 mph 14.3 mph 49% 0 in 650.00 W/m2 unknown
13:04 50 °F 32 °F 30.3 in ENE 8.7 mph 13 mph 50% 0 in 649.00 W/m2 unknown
13:09 50 °F 32 °F 30.3 in East 9.3 mph 13 mph 50% 0 in 647.00 W/m2 unknown
13:14 51.8 °F 33.8 °F 30.3 in ENE 8.1 mph 13 mph 50% 0 in 640.00 W/m2 unknown
13:19 51.8 °F 33.8 °F 30.3 in East 11.8 mph 17.4 mph 50% 0 in 631.00 W/m2 unknown
13:24 51.8 °F 33.8 °F 30.3 in ESE 6.8 mph 16.8 mph 51% 0 in 636.00 W/m2 unknown
13:29 51.8 °F 33.8 °F 30.3 in ESE 9.9 mph 11.8 mph 51% 0 in 638.00 W/m2 unknown
13:34 51.8 °F 33.8 °F 30.3 in ESE 8.7 mph 11.8 mph 50% 0 in 629.00 W/m2 unknown
13:39 50 °F 33.8 °F 30.3 in East 8.1 mph 10.6 mph 51% 0 in 622.00 W/m2 unknown
13:44 51.8 °F 33.8 °F 30.3 in ENE 8.1 mph 10.6 mph 51% 0 in 622.00 W/m2 unknown
13:49 51.8 °F 33.8 °F 30.3 in ESE 8.1 mph 10.6 mph 49% 0 in 617.00 W/m2 unknown
13:54 51.8 °F 33.8 °F 30.3 in East 7.5 mph 11.8 mph 49% 0 in 612.00 W/m2 unknown
13:59 51.8 °F 33.8 °F 30.3 in East 6.2 mph 11.8 mph 50% 0 in 603.00 W/m2 unknown
14:04 51.8 °F 33.8 °F 30.3 in East 9.9 mph 13 mph 50% 0 in 594.00 W/m2 unknown
14:09 51.8 °F 33.8 °F 30.3 in East 8.7 mph 13 mph 49% 0 in 591.00 W/m2 unknown
14:14 51.8 °F 33.8 °F 30.3 in ESE 10.6 mph 13.7 mph 50% 0 in 589.00 W/m2 unknown
14:19 51.8 °F 32 °F 30.3 in ESE 8.7 mph 14.3 mph 49% 0 in 580.00 W/m2 unknown
14:24 51.8 °F 33.8 °F 30.3 in East 9.3 mph 13 mph 50% 0 in 568.00 W/m2 unknown
14:29 51.8 °F 33.8 °F 30.3 in ESE 10.6 mph 14.3 mph 50% 0 in 557.00 W/m2 unknown
14:34 51.8 °F 33.8 °F 30.3 in East 9.9 mph 14.3 mph 50% 0 in 557.00 W/m2 unknown
14:39 51.8 °F 33.8 °F 30.3 in East 7.5 mph 14.3 mph 50% 0 in 555.00 W/m2 unknown
14:44 51.8 °F 33.8 °F 30.3 in ESE 11.2 mph 14.3 mph 50% 0 in 538.00 W/m2 unknown
14:49 51.8 °F 33.8 °F 30.3 in SE 8.7 mph 14.3 mph 51% 0 in 526.00 W/m2 unknown
14:54 51.8 °F 33.8 °F 30.3 in East 8.1 mph 13 mph 51% 0 in 540.00 W/m2 unknown
14:59 51.8 °F 33.8 °F 30.3 in ENE 8.7 mph 11.8 mph 50% 0 in 536.00 W/m2 unknown
15:04 53.6 °F 33.8 °F 30.3 in East 11.2 mph 13 mph 49% 0 in 519.00 W/m2 unknown
15:09 53.6 °F 33.8 °F 30.3 in ESE 9.9 mph 13 mph 49% 0 in 504.00 W/m2 unknown
15:14 51.8 °F 33.8 °F 30.3 in ESE 8.1 mph 13 mph 50% 0 in 482.00 W/m2 unknown
15:19 51.8 °F 33.8 °F 30.3 in East 6.8 mph 11.8 mph 50% 0 in 473.00 W/m2 unknown
15:24 53.6 °F 35.6 °F 30.3 in ESE 6.8 mph 11.8 mph 50% 0 in 450.00 W/m2 unknown
15:29 53.6 °F 35.6 °F 30.3 in SE 6.2 mph 9.9 mph 50% 0 in 434.00 W/m2 unknown
15:34 53.6 °F 35.6 °F 30.3 in SSE 3.7 mph 8.1 mph 51% 0 in 425.00 W/m2 unknown
15:39 53.6 °F 35.6 °F 30.3 in ENE 8.7 mph 13 mph 51% 0 in 417.00 W/m2 unknown
15:44 53.6 °F 35.6 °F 30.3 in ENE 6.2 mph 13 mph 50% 0 in 396.00 W/m2 unknown
15:49 53.6 °F 33.8 °F 30.3 in ESE 7.5 mph 10.6 mph 49% 0 in 387.00 W/m2 unknown
15:54 51.8 °F 33.8 °F 30.3 in ESE 6.8 mph 10.6 mph 50% 0 in 376.00 W/m2 unknown
15:59 51.8 °F 33.8 °F 30.3 in ESE 8.7 mph 10.6 mph 50% 0 in 364.00 W/m2 unknown
16:04 51.8 °F 33.8 °F 30.3 in ESE 10.6 mph 14.3 mph 50% 0 in 346.00 W/m2 unknown
16:09 51.8 °F 33.8 °F 30.3 in ESE 9.9 mph 14.3 mph 50% 0 in 332.00 W/m2 unknown
16:14 51.8 °F 35.6 °F 30.3 in SE 5.6 mph 13 mph 51% 0 in 323.00 W/m2 unknown
16:19 51.8 °F 35.6 °F 30.3 in SSE 3.7 mph 8.1 mph 51% 0 in 308.00 W/m2 unknown
16:24 51.8 °F 33.8 °F 30.3 in SE 8.1 mph 9.9 mph 50% 0 in 294.00 W/m2 unknown
16:29 51.8 °F 33.8 °F 30.3 in ESE 7.5 mph 11.2 mph 49% 0 in 276.00 W/m2 unknown
16:34 51.8 °F 33.8 °F 30.3 in ESE 8.1 mph 11.8 mph 49% 0 in 264.00 W/m2 unknown
16:39 51.8 °F 33.8 °F 30.3 in ESE 6.2 mph 11.8 mph 49% 0 in 250.00 W/m2 unknown
16:44 51.8 °F 33.8 °F 30.3 in ESE 6.8 mph 8.1 mph 50% 0 in 230.00 W/m2 unknown
16:49 51.8 °F 33.8 °F 30.3 in ESE 8.7 mph 11.8 mph 50% 0 in 220.00 W/m2 unknown
16:54 51.8 °F 33.8 °F 30.3 in ESE 9.3 mph 11.8 mph 50% 0 in 202.00 W/m2 unknown
16:59 51.8 °F 33.8 °F 30.3 in ESE 8.7 mph 11.8 mph 51% 0 in 186.00 W/m2 unknown
17:04 51.8 °F 33.8 °F 30.3 in East 8.7 mph 10.6 mph 50% 0 in 172.00 W/m2 unknown
17:09 51.8 °F 33.8 °F 30.3 in ESE 8.7 mph 11.2 mph 50% 0 in 156.00 W/m2 unknown
17:14 51.8 °F 33.8 °F 30.3 in ESE 9.3 mph 11.8 mph 51% 0 in 139.00 W/m2 unknown
17:19 51.8 °F 33.8 °F 30.3 in ESE 7.5 mph 11.8 mph 51% 0 in 123.00 W/m2 unknown
17:24 51.8 °F 33.8 °F 30.3 in ESE 8.1 mph 11.8 mph 52% 0 in 111.00 W/m2 unknown
17:29 51.8 °F 33.8 °F 30.3 in ESE 8.7 mph 11.8 mph 52% 0 in 95.00 W/m2 unknown
17:34 50 °F 33.8 °F 30.3 in ESE 8.7 mph 11.8 mph 53% 0 in 81.00 W/m2 unknown
17:39 50 °F 33.8 °F 30.3 in ESE 7.5 mph 11.8 mph 53% 0 in 67.00 W/m2 unknown
17:44 50 °F 33.8 °F 30.3 in ESE 7.5 mph 9.3 mph 53% 0 in 51.00 W/m2 unknown
17:49 50 °F 33.8 °F 30.3 in ESE 5.6 mph 8.7 mph 54% 0 in 40.00 W/m2 unknown
17:54 50 °F 33.8 °F 30.3 in ESE 3.7 mph 6.8 mph 55% 0 in 21.00 W/m2 unknown
17:59 50 °F 33.8 °F 30.3 in ESE 5.6 mph 8.1 mph 55% 0 in 16.00 W/m2 unknown
18:04 50 °F 33.8 °F 30.3 in SE 3.7 mph 8.1 mph 56% 0 in 11.00 W/m2 unknown
18:09 48.2 °F 33.8 °F 30.3 in SE 3.7 mph 6.2 mph 56% 0 in 7.00 W/m2 unknown
18:14 48.2 °F 33.8 °F 30.3 in ESE 3.1 mph 5 mph 57% 0 in 5.00 W/m2 unknown
18:19 48.2 °F 33.8 °F 30.3 in ESE 3.1 mph 5 mph 58% 0 in 0.00 W/m2 unknown
18:24 48.2 °F 33.8 °F 30.3 in ESE 3.1 mph 5 mph 58% 0 in 0.00 W/m2 unknown
18:29 48.2 °F 33.8 °F 30.3 in ESE 2.5 mph 3.7 mph 58% 0 in 0.00 W/m2 unknown
18:34 48.2 °F 33.8 °F 30.3 in ESE 1.9 mph 3.7 mph 59% 0 in 0.00 W/m2 unknown
18:39 46.4 °F 33.8 °F 30.3 in ESE 1.2 mph 3.1 mph 60% 0 in 0.00 W/m2 unknown
18:44 46.4 °F 33.8 °F 30.3 in East 2.5 mph 3.7 mph 60% 0 in 0.00 W/m2 unknown
18:49 46.4 °F 33.8 °F 30.3 in East 2.5 mph 3.7 mph 60% 0 in 0.00 W/m2 unknown
18:54 46.4 °F 33.8 °F 30.3 in East 2.5 mph 3.7 mph 61% 0 in 0.00 W/m2 unknown
18:59 46.4 °F 33.8 °F 30.3 in East 3.1 mph 3.7 mph 61% 0 in 0.00 W/m2 unknown
19:04 46.4 °F 33.8 °F 30.3 in ENE 3.1 mph 5 mph 62% 0 in 0.00 W/m2 unknown
19:09 46.4 °F 33.8 °F 30.3 in ENE 3.1 mph 5 mph 62% 0 in 0.00 W/m2 unknown
19:14 46.4 °F 33.8 °F 30.3 in ENE 1.9 mph 3.1 mph 64% 0 in 0.00 W/m2 unknown
19:19 44.6 °F 33.8 °F 30.3 in ENE 1.9 mph 2.5 mph 65% 0 in 0.00 W/m2 unknown
19:24 44.6 °F 33.8 °F 30.3 in East 1.9 mph 2.5 mph 65% 0 in 0.00 W/m2 unknown
19:29 44.6 °F 33.8 °F 30.3 in East 1.9 mph 3.7 mph 65% 0 in 0.00 W/m2 unknown
19:34 44.6 °F 33.8 °F 30.3 in ESE 3.7 mph 5 mph 65% 0 in 0.00 W/m2 unknown
19:39 46.4 °F 35.6 °F 30.3 in ESE 3.1 mph 5 mph 65% 0 in 0.00 W/m2 unknown
19:44 46.4 °F 35.6 °F 30.3 in East 3.1 mph 5 mph 65% 0 in 0.00 W/m2 unknown
19:49 46.4 °F 35.6 °F 30.3 in ESE 3.1 mph 3.7 mph 65% 0 in 0.00 W/m2 unknown
19:54 46.4 °F 35.6 °F 30.3 in ESE 1.9 mph 3.7 mph 66% 0 in 0.00 W/m2 unknown
19:59 46.4 °F 35.6 °F 30.3 in ESE 1.9 mph 3.1 mph 66% 0 in 0.00 W/m2 unknown
20:04 46.4 °F 35.6 °F 30.3 in ESE 3.7 mph 5 mph 66% 0 in 0.00 W/m2 unknown
20:09 46.4 °F 35.6 °F 30.3 in ESE 5.6 mph 8.1 mph 66% 0 in 0.00 W/m2 unknown
20:14 46.4 °F 35.6 °F 30.3 in ESE 7.5 mph 10.6 mph 66% 0 in 0.00 W/m2 unknown
20:19 46.4 °F 35.6 °F 30.3 in ESE 6.2 mph 9.9 mph 66% 0 in 0.00 W/m2 unknown
20:24 46.4 °F 35.6 °F 30.3 in ESE 6.2 mph 9.3 mph 65% 0 in 0.00 W/m2 unknown
20:29 46.4 °F 35.6 °F 30.4 in ESE 6.2 mph 9.3 mph 64% 0 in 0.00 W/m2 unknown
20:34 46.4 °F 35.6 °F 30.4 in SE 5 mph 6.8 mph 64% 0 in 0.00 W/m2 unknown
20:39 46.4 °F 35.6 °F 30.4 in ESE 5.6 mph 8.1 mph 64% 0 in 0.00 W/m2 unknown
20:44 46.4 °F 33.8 °F 30.4 in SE 5.6 mph 8.1 mph 64% 0 in 0.00 W/m2 unknown
20:49 46.4 °F 35.6 °F 30.4 in ESE 7.5 mph 9.3 mph 65% 0 in 0.00 W/m2 unknown
20:54 46.4 °F 35.6 °F 30.4 in ESE 6.8 mph 8.7 mph 65% 0 in 0.00 W/m2 unknown
20:59 46.4 °F 33.8 °F 30.4 in ESE 6.2 mph 10.6 mph 65% 0 in 0.00 W/m2 unknown
21:04 46.4 °F 35.6 °F 30.4 in ESE 5 mph 9.9 mph 66% 0 in 0.00 W/m2 unknown
21:09 46.4 °F 35.6 °F 30.4 in ESE 5 mph 6.8 mph 66% 0 in 0.00 W/m2 unknown
21:14 46.4 °F 33.8 °F 30.4 in ESE 5 mph 8.1 mph 65% 0 in 0.00 W/m2 unknown
21:19 46.4 °F 33.8 °F 30.4 in ESE 5 mph 8.1 mph 65% 0 in 0.00 W/m2 unknown
21:24 44.6 °F 33.8 °F 30.4 in ESE 4.3 mph 6.8 mph 65% 0 in 0.00 W/m2 unknown
21:29 44.6 °F 33.8 °F 30.4 in ESE 4.3 mph 5 mph 65% 0 in 0.00 W/m2 unknown
21:34 44.6 °F 33.8 °F 30.4 in East 5 mph 6.2 mph 65% 0 in 0.00 W/m2 unknown
21:39 44.6 °F 33.8 °F 30.4 in ESE 5 mph 8.1 mph 65% 0 in 0.00 W/m2 unknown
21:44 44.6 °F 33.8 °F 30.4 in ESE 5.6 mph 8.1 mph 65% 0 in 0.00 W/m2 unknown
21:49 44.6 °F 33.8 °F 30.4 in ESE 3.7 mph 8.1 mph 66% 0 in 0.00 W/m2 unknown
21:54 44.6 °F 33.8 °F 30.4 in ESE 3.7 mph 6.2 mph 66% 0 in 0.00 W/m2 unknown
21:59 44.6 °F 35.6 °F 30.4 in East 3.1 mph 6.2 mph 67% 0 in 0.00 W/m2 unknown
22:04 44.6 °F 35.6 °F 30.4 in East 3.1 mph 5 mph 67% 0 in 0.00 W/m2 unknown
22:09 44.6 °F 35.6 °F 30.4 in East 5.6 mph 6.8 mph 68% 0 in 0.00 W/m2 unknown
22:14 44.6 °F 35.6 °F 30.4 in East 3.7 mph 6.8 mph 68% 0 in 0.00 W/m2 unknown
22:19 44.6 °F 35.6 °F 30.4 in East 3.7 mph 6.2 mph 68% 0 in 0.00 W/m2 unknown
22:24 44.6 °F 35.6 °F 30.4 in East 3.7 mph 6.2 mph 68% 0 in 0.00 W/m2 unknown
22:29 44.6 °F 35.6 °F 30.4 in East 4.3 mph 6.8 mph 68% 0 in 0.00 W/m2 unknown
22:34 44.6 °F 35.6 °F 30.4 in ENE 5 mph 6.8 mph 68% 0 in 0.00 W/m2 unknown
22:39 44.6 °F 35.6 °F 30.4 in ENE 3.7 mph 6.8 mph 68% 0 in 0.00 W/m2 unknown
22:44 44.6 °F 35.6 °F 30.4 in NE 3.7 mph 6.8 mph 69% 0 in 0.00 W/m2 unknown
22:49 44.6 °F 35.6 °F 30.4 in ENE 2.5 mph 5 mph 69% 0 in 0.00 W/m2 unknown
22:54 44.6 °F 35.6 °F 30.4 in ENE 4.3 mph 5 mph 70% 0 in 0.00 W/m2 unknown
22:59 44.6 °F 35.6 °F 30.4 in ENE 3.7 mph 5 mph 71% 0 in 0.00 W/m2 unknown
23:04 44.6 °F 35.6 °F 30.4 in ENE 3.7 mph 5 mph 71% 0 in 0.00 W/m2 unknown
23:09 44.6 °F 35.6 °F 30.4 in NE 3.7 mph 5 mph 71% 0 in 0.00 W/m2 unknown
23:14 44.6 °F 35.6 °F 30.4 in NE 3.1 mph 5 mph 72% 0 in 0.00 W/m2 unknown
23:19 44.6 °F 35.6 °F 30.4 in NE 3.1 mph 5 mph 72% 0 in 0.00 W/m2 unknown
23:24 44.6 °F 35.6 °F 30.4 in NE 2.5 mph 5 mph 72% 0 in 0.00 W/m2 unknown
23:29 42.8 °F 35.6 °F 30.4 in NE 5 mph 6.8 mph 72% 0 in 0.00 W/m2 unknown
23:34 42.8 °F 35.6 °F 30.4 in NE 5 mph 6.8 mph 72% 0 in 0.00 W/m2 unknown
23:39 42.8 °F 35.6 °F 30.4 in NE 5 mph 6.8 mph 72% 0 in 0.00 W/m2 unknown
23:44 42.8 °F 35.6 °F 30.4 in NE 5 mph 6.8 mph 73% 0 in 0.00 W/m2 unknown
23:49 42.8 °F 35.6 °F 30.4 in NE 5 mph 6.8 mph 73% 0 in 0.00 W/m2 unknown
23:54 42.8 °F 35.6 °F 30.4 in NE 4.3 mph 6.2 mph 73% 0 in 0.00 W/m2 unknown
23:59 42.8 °F 35.6 °F 30.4 in NE 3.7 mph 5 mph 73% 0 in 0.00 W/m2 unknown
Stazione Meteorologica MeteoMincio Rivalta s/M (MN)
Con i complimenti di Weather Underground - 4 mb



METEO PILLOLE
Temperatura più bassa in montagna in Italia
Busa Fradusta (2.606m) Pale di San Martino - Trento
-48.3°C il 27 Dicembre 2010.
Share

Non seguire questo link o sarai bannato dal sito!